Date String (YYYY-MM-DD hh:mm:ss) UTC,Instrument flags,Ambient pressure (hPa),Sample flow (lpm),Bypass flow (lpm),Sample temperature (°C),Ambient temperature (°C),ASC tube jacket temperature (°C),LED temperature (°C),Box temperature (°C),Sample RH (%),Span deviation,Mass concentration (μg/m³),Mass concentration (μg/m³),Mass concentration (μg/m³)
DateTimeUTC,F1_M11,P_M11,Q1_M11,Q2_M11,T1_M11,T2_M11,T3_M11,T4_M11,T5_M11,U1_M11,ZSPAN_M11,X0_M11,X2_M11,X1_M11
2023-01-07 02:00:00,,0826.1,5.01,0.00,24.3,22.9,00.0,33.2,26.1,10.6,0000.0,0008.06,0004.27,0004.01
2023-01-07 02:01:00,,0826.1,5.00,0.00,24.3,22.9,00.0,33.2,26.1,10.6,0000.0,0008.01,0004.21,0003.94
2023-01-07 02:02:00,,0826.2,5.00,0.00,24.3,22.9,00.0,33.2,26.1,10.6,0000.0,0007.92,0004.14,0003.88
2023-01-07 02:03:00,,0826.2,4.99,0.00,24.3,22.9,00.0,33.2,26.0,10.6,0000.0,0007.93,0004.09,0003.82
2023-01-07 02:04:00,,0826.2,5.00,0.00,24.3,22.9,00.0,33.2,26.0,10.6,0000.0,0007.89,0004.03,0003.76
2023-01-07 02:05:00,,0826.2,4.99,0.00,24.3,22.8,00.0,33.2,26.0,10.6,0000.0,0007.75,0003.96,0003.72
2023-01-07 02:06:00,,0826.2,4.99,0.00,24.2,22.6,00.0,33.2,25.9,10.6,0000.0,0007.68,0003.95,0003.70
2023-01-07 02:07:00,,0826.2,4.98,0.00,24.2,22.5,00.0,33.2,25.9,10.6,0000.0,0006.87,0003.99,0003.71
2023-01-07 02:08:00,,0826.2,5.00,0.00,24.2,22.3,00.0,33.2,25.9,10.6,0000.0,0007.00,0003.98,0003.70
2023-01-07 02:09:00,,0826.2,5.00,0.00,24.1,22.2,00.0,33.2,25.8,10.7,0000.0,0007.91,0003.98,0003.70
2023-01-07 02:10:00,,0826.1,5.00,0.00,24.1,22.2,00.0,33.1,25.7,10.7,0000.0,0008.01,0004.03,0003.74
2023-01-07 02:11:00,,0826.2,5.01,0.00,24.1,22.2,00.0,33.1,25.7,10.9,0000.0,0008.23,0004.09,0003.78
2023-01-07 02:12:00,,0826.2,5.01,0.00,24.0,22.3,00.0,33.1,25.7,11.0,0000.0,0008.28,0004.12,0003.81
2023-01-07 02:13:00,,0826.2,5.00,0.00,24.0,22.4,00.0,33.1,25.7,10.9,0000.0,0008.36,0004.17,0003.85
2023-01-07 02:14:00,,0826.2,5.00,0.00,24.0,22.4,00.0,33.0,25.7,10.8,0000.0,0009.04,0004.20,0003.88
2023-01-07 02:15:00,,0826.2,4.99,0.00,24.0,22.4,00.0,33.0,25.6,10.8,0000.0,0009.93,0004.27,0003.92
2023-01-07 02:16:00,,0826.2,4.99,0.00,24.0,22.2,00.0,33.0,25.5,10.8,0000.0,0010.24,0004.37,0003.98
2023-01-07 02:17:00,,0826.2,5.00,0.00,23.9,22.0,00.0,33.0,25.5,10.8,0000.0,0010.74,0004.47,0004.09
2023-01-07 02:18:00,,0826.2,5.00,0.00,23.9,22.0,00.0,32.9,25.5,10.8,0000.0,0011.09,0004.53,0004.19
2023-01-07 02:19:00,,0826.2,5.00,0.00,23.8,22.0,00.0,32.9,25.5,10.8,0000.0,0011.30,0004.67,0004.30
2023-01-07 02:20:00,,0826.2,5.01,0.00,23.8,22.0,00.0,32.9,25.5,10.8,0000.0,0010.81,0004.80,0004.45
2023-01-07 02:21:00,,0826.4,4.99,0.00,23.8,22.1,00.0,32.9,25.5,10.8,0000.0,0010.85,0004.91,0004.57
2023-01-07 02:22:00,,0826.4,5.00,0.00,23.8,22.2,00.0,32.9,25.5,10.8,0000.0,0010.80,0005.02,0004.68
2023-01-07 02:23:00,,0826.5,5.00,0.00,23.8,22.2,00.0,32.8,25.5,10.8,0000.0,0010.86,0005.12,0004.79
2023-01-07 02:24:00,,0826.5,5.00,0.00,23.8,22.1,00.0,32.8,25.5,10.8,0000.0,0010.90,0005.20,0004.90
2023-01-07 02:25:00,,0826.5,5.00,0.00,23.8,22.0,00.0,32.8,25.5,10.8,0000.0,0010.34,0005.31,0005.01
2023-01-07 02:26:00,,0826.5,5.01,0.00,23.7,22.0,00.0,32.8,25.4,10.8,0000.0,0009.59,0005.40,0005.10
2023-01-07 02:27:00,,0826.5,5.00,0.00,23.7,22.0,00.0,32.8,25.4,10.8,0000.0,0009.46,0005.43,0005.18
2023-01-07 02:28:00,,0826.5,5.00,0.00,23.7,22.1,00.0,32.7,25.5,10.9,0000.0,0008.86,0005.42,0005.19
2023-01-07 02:29:00,,0826.5,5.00,0.00,23.8,22.2,00.0,32.7,25.5,10.9,0000.0,0008.44,0005.43,0005.21
2023-01-07 02:30:00,,0826.5,5.00,0.00,23.8,22.3,00.0,32.7,25.5,10.8,0000.0,0008.22,0005.44,0005.23
2023-01-07 02:31:00,,0826.5,5.00,0.00,23.8,22.4,00.0,32.7,25.6,10.8,0000.0,0008.06,0005.44,0005.21
2023-01-07 02:32:00,,0826.5,4.99,0.00,23.8,22.5,00.0,32.7,25.6,10.8,0000.0,0008.06,0005.41,0005.18
2023-01-07 02:33:00,,0826.5,5.00,0.00,23.8,22.5,00.0,32.7,25.6,10.8,0000.0,0008.06,0005.38,0005.13
2023-01-07 02:34:00,,0826.4,5.01,0.00,23.8,22.5,00.0,32.7,25.6,10.8,0000.0,0008.08,0005.38,0005.08
2023-01-07 02:35:00,,0826.5,5.00,0.00,23.8,22.5,00.0,32.7,25.6,10.8,0000.0,0008.08,0005.34,0005.03
2023-01-07 02:36:00,,0826.5,5.00,0.00,23.9,22.6,00.0,32.7,25.6,10.9,0000.0,0008.17,0005.29,0004.96
2023-01-07 02:37:00,,0826.5,4.99,0.00,23.9,22.6,00.0,32.7,25.6,10.9,0000.0,0008.24,0005.22,0004.88
2023-01-07 02:38:00,,0826.6,5.00,0.00,23.9,22.6,00.0,32.7,25.6,10.8,0000.0,0008.24,0005.18,0004.82
2023-01-07 02:39:00,,0826.5,5.00,0.00,23.9,22.6,00.0,32.7,25.6,10.8,0000.0,0008.49,0005.16,0004.78
2023-01-07 02:40:00,,0826.6,5.00,0.00,23.9,22.6,00.0,32.7,25.6,10.8,0000.0,0008.54,0005.13,0004.73
2023-01-07 02:41:00,,0826.6,5.00,0.00,23.9,22.6,00.0,32.7,25.6,10.8,0000.0,0008.57,0005.11,0004.69
2023-01-07 02:42:00,,0826.6,5.00,0.00,23.9,22.6,00.0,32.7,25.6,10.8,0000.0,0008.56,0005.06,0004.65
2023-01-07 02:43:00,,0826.7,5.00,0.00,23.9,22.6,00.0,32.7,25.6,10.7,0000.0,0008.55,0005.04,0004.62
2023-01-07 02:44:00,,0826.7,5.01,0.00,23.9,22.6,00.0,32.7,25.6,10.7,0000.0,0008.52,0005.02,0004.61
2023-01-07 02:45:00,,0826.7,5.01,0.00,23.9,22.6,00.0,32.7,25.6,10.7,0000.0,0008.54,0004.98,0004.61
2023-01-07 02:46:00,,0826.7,5.00,0.00,23.9,22.6,00.0,32.7,25.6,10.8,0000.0,0008.53,0004.96,0004.59
2023-01-07 02:47:00,,0826.7,4.99,0.00,23.9,22.6,00.0,32.7,25.6,10.9,0000.0,0009.07,0004.95,0004.58
2023-01-07 02:48:00,,0826.7,5.00,0.00,23.9,22.5,00.0,32.7,25.5,11.1,0000.0,0008.96,0004.87,0004.51
2023-01-07 02:49:00,,0826.7,5.00,0.00,23.9,22.5,00.0,32.7,25.5,11.1,0000.0,0008.81,0004.78,0004.42
2023-01-07 02:50:00,,0826.8,5.00,0.00,23.9,22.5,00.0,32.7,25.5,10.9,0000.0,0008.51,0004.71,0004.37
2023-01-07 02:51:00,,0826.8,4.99,0.00,23.9,22.5,00.0,32.7,25.5,10.9,0000.0,0008.45,0004.67,0004.31
2023-01-07 02:52:00,,0827.0,5.00,0.00,23.9,22.5,00.0,32.7,25.6,10.9,0000.0,0008.32,0004.59,0004.24
2023-01-07 02:53:00,,0826.9,5.02,0.00,23.9,22.4,00.0,32.7,25.5,10.9,0000.0,0008.16,0004.51,0004.18
2023-01-07 02:54:00,,0826.8,5.00,0.00,23.9,22.4,00.0,32.7,25.6,10.9,0000.0,0008.05,0004.44,0004.12
2023-01-07 02:55:00,,0826.8,5.00,0.00,23.9,22.4,00.0,32.7,25.6,10.9,0000.0,0008.04,0004.39,0004.06
2023-01-07 02:56:00,,0826.8,5.00,0.00,23.9,22.4,00.0,32.7,25.6,11.0,0000.0,0008.01,0004.31,0003.98
2023-01-07 02:57:00,,0826.8,5.00,0.00,23.8,22.4,00.0,32.7,25.6,11.1,0000.0,0007.92,0004.22,0003.88
2023-01-07 02:58:00,,0827.1,5.00,0.00,23.8,22.4,00.0,32.7,25.6,11.1,0000.0,0006.89,0004.13,0003.82
2023-01-07 02:59:00,,0826.9,5.00,0.00,23.8,22.4,00.0,32.7,25.6,11.1,0000.0,0006.67,0004.11,0003.81
